Bartow, FL

4:22 AM EST on December 07, 2019 (GMT -0500)
Bartow Municipal

Weather History for KBOW - September, 2019

Change the Weather History Date:

Wednesday, September 18, 2019

  Actual Average Record
Temperature  
Mean Temperature 81 °F -  
Max Temperature 91 °F 90 °F 97 °F (1933)
Min Temperature 71 °F 71 °F 64 °F (1981)
Cooling Degree Days 16    
Growing Degree Days 31 (Base 50)    
Moisture  
Dew Point 72 °F    
Average Humidity 83    
Maximum Humidity 94    
Minimum Humidity 49    
Precipitation  
Precipitation 0.00 in - - ()
Sea Level Pressure  
Sea Level Pressure 29.96 in    
Wind  
Wind Speed 2 mph ()    
Max Wind Speed 9 mph    
Max Gust Speed 18 mph    
Visibility 9.7 miles    
Events Rain , Thunderstorm    
Averages and records for this station are not official NWS values.
T = Trace of Precipitation, MM = Missing Value Source: Averaged Metar Reports

Daily Weather History Graph

Daily Weather History Graph

Search for Another Location

Airport or City:

Astronomy

Sep. 18, 2019 Rise Set
Actual Time 7:13 AM EDT 7:28 PM EDT
Civil Twilight 6:50 AM EDT 7:51 PM EDT
Nautical Twilight 6:22 AM EDT 8:19 PM EDT
Astronomical Twilight 5:55 AM EDT 8:46 PM EDT
Moon 10:22 PM EDT (9/18) 10:56 AM EDT (9/18)
Length of Visible Light 13h 01m
Length of Day
12h 14m
Waning Gibbous, 82% of the Moon is Illuminated
Sep 18
Waning Gibbous
Sep 21
Last Quarter
Sep 28
New
Oct 5
First Quarter
Oct 13
Full

Hourly Weather History & Observations

Time (EDT) Temp. Heat Index Dew Point Humidity Pressure Visibility Wind Dir Wind Speed Gust Speed Precip Events Conditions
12:15 AM 73.4 °F - 68.0 °F 83% 29.96 in 10.0 mi Calm Calm - N/A   Unknown
12:35 AM 73.4 °F - 68.0 °F 83% 29.96 in 10.0 mi Calm Calm - N/A   Clear
12:55 AM 71.6 °F - 68.0 °F 88% 29.96 in 10.0 mi Calm Calm - N/A   Clear
1:15 AM 71.6 °F - 68.0 °F 88% 29.96 in 10.0 mi Calm Calm - N/A   Unknown
1:55 AM 73.4 °F - 68.0 °F 83% 29.95 in 10.0 mi Calm Calm - N/A   Unknown
2:35 AM 71.6 °F - 68.0 °F 88% 29.95 in 10.0 mi Calm Calm - N/A   Unknown
2:55 AM 71.6 °F - 68.0 °F 88% 29.94 in 10.0 mi Calm Calm - N/A   Clear
3:15 AM 71.6 °F - 68.0 °F 88% 29.94 in 10.0 mi Calm Calm - N/A   Clear
3:35 AM 71.6 °F - 68.0 °F 88% 29.94 in 10.0 mi Calm Calm - N/A   Clear
3:55 AM 71.6 °F - 68.0 °F 88% 29.93 in 10.0 mi Calm Calm - N/A   Clear
4:15 AM 71.6 °F - 68.0 °F 88% 29.94 in 10.0 mi Calm Calm - N/A   Clear
4:35 AM 71.6 °F - 68.0 °F 88% 29.94 in 10.0 mi Calm Calm - N/A   Clear
4:55 AM 71.6 °F - 68.0 °F 88% 29.94 in 10.0 mi Calm Calm - N/A   Scattered Clouds
5:15 AM 73.4 °F - 69.8 °F 88% 29.94 in 10.0 mi Calm Calm - N/A   Mostly Cloudy
5:35 AM 73.4 °F - 71.6 °F 94% 29.94 in 10.0 mi Calm Calm - N/A   Mostly Cloudy
5:55 AM 75.2 °F - 71.6 °F 89% 29.94 in 10.0 mi Calm Calm - N/A   Unknown
6:15 AM 71.6 °F - 69.8 °F 94% 29.95 in 10.0 mi Calm Calm - N/A   Unknown
6:35 AM 71.6 °F - 69.8 °F 94% 29.96 in 10.0 mi Calm Calm - N/A   Mostly Cloudy
6:55 AM 75.2 °F - 71.6 °F 89% 29.96 in 10.0 mi Calm Calm - N/A   Unknown
7:15 AM 75.2 °F - 71.6 °F 89% 29.97 in 10.0 mi Calm Calm - N/A   Unknown
7:30 AM 75.2 °F - 71.6 °F 89% 29.97 in 8.0 mi Calm Calm - N/A   Scattered Clouds
7:45 AM 75.2 °F - 71.6 °F 89% 29.98 in 10.0 mi Calm Calm - N/A   Scattered Clouds
8:50 AM 78.8 °F - 73.4 °F 83% 29.99 in 10.0 mi Variable 3.5 mph - N/A   Scattered Clouds
9:50 AM 82.4 °F 89.5 °F 75.2 °F 79% 29.99 in 10.0 mi Variable 4.6 mph - N/A   Scattered Clouds
10:50 AM 86.0 °F 93.4 °F 73.4 °F 66% 30.00 in 10.0 mi ENE 9.2 mph - N/A   Mostly Cloudy
11:50 AM 87.8 °F 93.8 °F 71.6 °F 58% 30.00 in 10.0 mi NE 6.9 mph - N/A   Mostly Cloudy
12:50 PM 89.6 °F 96.2 °F 71.6 °F 55% 29.98 in 10.0 mi East 6.9 mph - N/A   Scattered Clouds
1:50 PM 91.4 °F 98.4 °F 71.6 °F 52% 29.97 in 10.0 mi ENE 9.2 mph - N/A   Scattered Clouds
2:50 PM 91.4 °F 96.8 °F 69.8 °F 49% 29.96 in 10.0 mi ENE 6.9 mph - N/A   Scattered Clouds
3:50 PM 86.0 °F 93.4 °F 73.4 °F 66% 29.93 in 7.0 mi ENE 9.2 mph - N/A Rain Light Rain
4:15 PM 82.4 °F 87.2 °F 71.6 °F 70% 29.94 in 6.0 mi NNW 6.9 mph 16.1 mph N/A Rain , Thunderstorm Rain
4:50 PM 80.6 °F 85.4 °F 73.4 °F 79% 29.94 in 8.0 mi ESE 9.2 mph 18.4 mph N/A Thunderstorm Mostly Cloudy
5:35 PM 82.4 °F 88.2 °F 73.4 °F 74% 29.94 in 10.0 mi Calm Calm - N/A   Mostly Cloudy
5:55 PM 80.6 °F 85.4 °F 73.4 °F 79% 29.94 in 10.0 mi NE 5.8 mph - N/A   Partly Cloudy
6:15 PM 78.8 °F - 75.2 °F 89% 29.94 in 10.0 mi NE 5.8 mph - N/A   Clear
6:35 PM 78.8 °F - 75.2 °F 89% 29.94 in 10.0 mi NE 5.8 mph - N/A Thunderstorm Clear
6:55 PM 78.8 °F - 75.2 °F 89% 29.95 in 10.0 mi NNE 5.8 mph - N/A   Clear
7:15 PM 78.8 °F - 75.2 °F 89% 29.95 in 10.0 mi NE 5.8 mph - N/A   Scattered Clouds
7:35 PM 78.8 °F - 75.2 °F 89% 29.96 in 10.0 mi NE 3.5 mph - N/A   Scattered Clouds
7:55 PM 78.8 °F - 75.2 °F 89% 29.96 in 10.0 mi NNE 5.8 mph - N/A   Scattered Clouds
8:15 PM 78.8 °F - 75.2 °F 89% 29.97 in 10.0 mi NE 5.8 mph - N/A   Mostly Cloudy
8:35 PM 78.8 °F - 75.2 °F 89% 29.98 in 7.0 mi NE 8.1 mph - N/A Rain Light Rain
9:15 PM 78.8 °F - 73.4 °F 83% 29.98 in 10.0 mi NE 8.1 mph - N/A   Unknown
9:35 PM 78.8 °F - 73.4 °F 83% 29.99 in 10.0 mi NE 5.8 mph - N/A   Unknown
9:55 PM 78.8 °F - 73.4 °F 83% 29.99 in 10.0 mi NE 5.8 mph - N/A   Unknown
10:15 PM 77.0 °F - 73.4 °F 89% 30.00 in 10.0 mi NE 8.1 mph - N/A   Unknown
10:35 PM 77.0 °F - 73.4 °F 89% 30.00 in 10.0 mi ENE 5.8 mph - N/A   Clear
10:55 PM 77.0 °F - 73.4 °F 89% 30.01 in 10.0 mi NE 6.9 mph - N/A   Clear
11:15 PM 77.0 °F - 73.4 °F 89% 30.02 in 10.0 mi NNE 5.8 mph - N/A   Partly Cloudy
11:35 PM 77.0 °F - 73.4 °F 89% 30.02 in 10.0 mi NE 5.8 mph - N/A   Partly Cloudy
11:55 PM 77.0 °F - 73.4 °F 89% 30.02 in 10.0 mi NE 6.9 mph - N/A   Mostly Cloudy